User: anonymous   Login
Location: Kosice
(0.0000°N, 21.2500°E)
Time: 17:38:27
(UTC+02:00)
Language:

DMSP B5D2-2 - Orbit

View from above orbital plane
View from above orbital plane
View from above satellite
View from above satellite

Ground track
Ground track

The orbit data is extracted from the following two-line orbital elements,

1 14506U 83113A   21105.21346375  .00000030  00000-0  28453-4 0  9991
2 14506  98.3054 309.3505 0012268  55.9655  58.9282 14.28143169946031
Epoch (UTC): 15 April 2021 05:07:23
Eccentricity: 0.0012268
inclination: 98.3054°
perigee height: 789 km
apogee height: 807 km
right ascension of ascending node: 309.3505°
argument of perigee: 55.9655°
revolutions per day: 14.28143169
mean anomaly at epoch: 58.9282°
orbit number at epoch: 94603

The dashed part of the orbit path shows where the satellite is in the earth's shadow,  

DLR